Location: Krasnoyarskiy Pitomnik
(51.1333°N, 71.6167°E)
Time: 20:54:00
(UTC+00:00)

A-11 Canister half - Pass Details

Date: 23 April 2024
Orbit: 1525 x 1683 km, 47.3° (Epoch: 19 May)

Event Time Altitude Azimuth Distance (km) Brightness Sun altitude
Rises 05:44:21 0° 284° (WNW) 4,934 11.4 47.7°
Reaches altitude 10° 05:47:38 10° 280° (W) 3,949 11.0 48.0°
Maximum altitude 05:57:12 49° 210° (SSW) 2,075 10.7 48.7°
Drops below altitude 10° 06:06:40 10° 139° (SE) 3,899 12.0 49.4°
Sets 06:09:54 0° 135° (SE) 4,867 12.2 49.6°
